AAL2520 KBUF-KDFW

Flight info

Callsign AAL2520
Flight time 3h 3m
Altitude 36000
Route DJB SINKR ELIOE DEVER PROWL FLP FSM KOMMA RRNET SEEVR4
Aircraft A320/M-SDE3FGHIRWY/LB1

Departure

Time 2026-05-08 17:17
Airport Buffalo Niagara International Airport (KBUF)

Arrival

Time 2026-05-08 20:20
Airport Dallas Fort Worth International Airport (KDFW)
Time Latitude Longitude Altitude Speed Heading
2026-05-08 16:54 42.93455 -78.73296 709 ft 0 kts 160°
2026-05-08 17:05 42.93463 -78.73300 701 ft 4 kts 160°
2026-05-08 17:06 42.93486 -78.73311 712 ft 4 kts 159°
2026-05-08 17:06 42.93504 -78.73327 710 ft 4 kts 92°
2026-05-08 17:06 42.93495 -78.73357 710 ft 4 kts 49°
2026-05-08 17:06 42.93481 -78.73377 709 ft 0 kts 44°
2026-05-08 17:11 42.93485 -78.73373 709 ft 2 kts 44°
2026-05-08 17:11 42.93509 -78.73346 714 ft 10 kts 31°
2026-05-08 17:12 42.93571 -78.73310 713 ft 8 kts 22°
2026-05-08 17:12 42.93616 -78.73286 714 ft 7 kts 22°
2026-05-08 17:12 42.93672 -78.73238 715 ft 9 kts 41°
2026-05-08 17:12 42.93706 -78.73194 717 ft 5 kts 44°
2026-05-08 17:13 42.93731 -78.73161 716 ft 7 kts 44°
2026-05-08 17:13 42.93786 -78.73089 715 ft 14 kts 44°
2026-05-08 17:13 42.93868 -78.72981 716 ft 18 kts 44°
2026-05-08 17:13 42.93960 -78.72860 712 ft 20 kts 44°
2026-05-08 17:14 42.94061 -78.72726 713 ft 20 kts 43°
2026-05-08 17:14 42.94162 -78.72596 716 ft 20 kts 44°
2026-05-08 17:14 42.94261 -78.72467 719 ft 19 kts 44°
2026-05-08 17:14 42.94358 -78.72339 718 ft 20 kts 44°
2026-05-08 17:15 42.94462 -78.72203 718 ft 21 kts 44°
2026-05-08 17:15 42.94569 -78.72062 716 ft 17 kts 44°
2026-05-08 17:15 42.94618 -78.72002 715 ft 6 kts 31°
2026-05-08 17:15 42.94651 -78.72000 715 ft 6 kts 343°
2026-05-08 17:16 42.94698 -78.72057 716 ft 8 kts 312°
2026-05-08 17:16 42.94693 -78.72108 717 ft 2 kts 226°
2026-05-08 17:16 42.94673 -78.72134 714 ft 23 kts 223°
2026-05-08 17:16 42.94359 -78.72547 718 ft 98 kts 224°
2026-05-08 17:17 42.93719 -78.73387 721 ft 154 kts 224°
2026-05-08 17:17 42.92927 -78.74440 1178 ft 163 kts 225°
2026-05-08 17:17 42.92108 -78.75527 1769 ft 170 kts 225°
2026-05-08 17:17 42.91210 -78.76716 2225 ft 190 kts 225°
2026-05-08 17:18 42.90213 -78.78035 2572 ft 211 kts 225°
2026-05-08 17:18 42.89101 -78.79506 2918 ft 234 kts 226°
2026-05-08 17:18 42.87898 -78.81137 3348 ft 253 kts 232°
2026-05-08 17:18 42.86885 -78.83069 4248 ft 249 kts 239°
2026-05-08 17:19 42.85960 -78.85073 5039 ft 254 kts 241°
2026-05-08 17:19 42.85054 -78.87149 5819 ft 256 kts 242°
2026-05-08 17:19 42.84156 -78.89259 6648 ft 258 kts 243°
2026-05-08 17:19 42.83260 -78.91378 7463 ft 259 kts 243°
2026-05-08 17:20 42.82354 -78.93509 8271 ft 261 kts 243°
2026-05-08 17:20 42.81437 -78.95653 9060 ft 263 kts 243°
2026-05-08 17:20 42.80510 -78.97810 9822 ft 265 kts 243°
2026-05-08 17:20 42.79585 -78.99964 10370 ft 275 kts 244°
2026-05-08 17:21 42.78569 -79.02340 10556 ft 298 kts 244°
2026-05-08 17:21 42.77509 -79.04823 10824 ft 315 kts 244°
2026-05-08 17:21 42.76393 -79.07421 11424 ft 320 kts 244°
2026-05-08 17:21 42.75260 -79.10049 12100 ft 324 kts 244°
2026-05-08 17:22 42.74113 -79.12688 12789 ft 325 kts 244°
2026-05-08 17:22 42.72956 -79.15338 13430 ft 327 kts 244°
2026-05-08 17:22 42.71791 -79.18012 14053 ft 330 kts 244°
2026-05-08 17:22 42.70621 -79.20710 14671 ft 332 kts 244°
2026-05-08 17:23 42.69444 -79.23432 15257 ft 335 kts 245°
2026-05-08 17:23 42.68254 -79.26174 15838 ft 338 kts 245°
2026-05-08 17:23 42.67054 -79.28937 16393 ft 341 kts 245°
2026-05-08 17:23 42.65844 -79.31718 16941 ft 343 kts 245°
2026-05-08 17:24 42.64639 -79.34479 17481 ft 346 kts 245°
2026-05-08 17:24 42.63407 -79.37300 18008 ft 349 kts 245°
2026-05-08 17:24 42.62164 -79.40139 18536 ft 351 kts 245°
2026-05-08 17:24 42.60911 -79.43001 19056 ft 354 kts 245°
2026-05-08 17:25 42.59647 -79.45882 19583 ft 356 kts 245°
2026-05-08 17:25 42.58378 -79.48776 20106 ft 358 kts 245°
2026-05-08 17:25 42.57104 -79.51688 20622 ft 360 kts 245°
2026-05-08 17:25 42.55821 -79.54620 21103 ft 363 kts 245°
2026-05-08 17:26 42.54529 -79.57566 21584 ft 364 kts 245°
2026-05-08 17:26 42.53228 -79.60523 22052 ft 366 kts 245°
2026-05-08 17:26 42.51921 -79.63489 22506 ft 367 kts 245°
2026-05-08 17:26 42.50625 -79.66430 22934 ft 369 kts 245°
2026-05-08 17:27 42.49305 -79.69421 23337 ft 371 kts 245°
2026-05-08 17:27 42.47977 -79.72430 23735 ft 373 kts 245°
2026-05-08 17:27 42.46641 -79.75453 24130 ft 375 kts 245°
2026-05-08 17:27 42.45301 -79.78483 24502 ft 376 kts 245°
2026-05-08 17:28 42.43955 -79.81525 24846 ft 377 kts 246°
2026-05-08 17:28 42.42604 -79.84579 25190 ft 379 kts 245°
2026-05-08 17:28 42.41244 -79.87648 25527 ft 381 kts 246°
2026-05-08 17:28 42.39878 -79.90725 25857 ft 382 kts 246°
2026-05-08 17:29 42.38504 -79.93815 26176 ft 384 kts 246°
2026-05-08 17:29 42.37124 -79.96917 26500 ft 385 kts 246°
2026-05-08 17:29 42.35739 -80.00026 26811 ft 387 kts 246°
2026-05-08 17:29 42.34348 -80.03146 27116 ft 388 kts 246°
2026-05-08 17:30 42.32951 -80.06273 27409 ft 390 kts 246°
2026-05-08 17:30 42.31565 -80.09368 27689 ft 391 kts 246°
2026-05-08 17:30 42.30156 -80.12514 27958 ft 392 kts 246°
2026-05-08 17:30 42.28739 -80.15673 28220 ft 394 kts 246°
2026-05-08 17:31 42.27318 -80.18839 28475 ft 395 kts 246°
2026-05-08 17:31 42.25893 -80.22013 28725 ft 396 kts 246°
2026-05-08 17:31 42.24461 -80.25200 28951 ft 398 kts 246°
2026-05-08 17:31 42.23022 -80.28398 29184 ft 399 kts 246°
2026-05-08 17:32 42.21581 -80.31602 29411 ft 400 kts 246°
2026-05-08 17:32 42.20134 -80.34814 29630 ft 401 kts 246°
2026-05-08 17:32 42.18683 -80.38022 29914 ft 400 kts 246°
2026-05-08 17:32 42.17235 -80.41222 30218 ft 399 kts 246°
2026-05-08 17:33 42.15795 -80.44407 30503 ft 398 kts 246°
2026-05-08 17:33 42.14358 -80.47583 30786 ft 396 kts 246°
2026-05-08 17:33 42.12921 -80.50751 31065 ft 396 kts 246°
2026-05-08 17:33 42.11485 -80.53914 31301 ft 395 kts 246°
2026-05-08 17:34 42.10073 -80.57027 31570 ft 394 kts 246°
2026-05-08 17:34 42.08645 -80.60170 31857 ft 393 kts 245°
2026-05-08 17:34 42.07216 -80.63312 32096 ft 393 kts 245°
2026-05-08 17:34 42.05788 -80.66448 32346 ft 392 kts 245°
2026-05-08 17:35 42.04363 -80.69572 32607 ft 392 kts 245°
2026-05-08 17:35 42.02941 -80.72688 32872 ft 391 kts 245°
2026-05-08 17:35 42.01522 -80.75798 33127 ft 389 kts 245°
2026-05-08 17:35 42.00106 -80.78898 33363 ft 389 kts 245°
2026-05-08 17:36 41.98686 -80.81996 33609 ft 388 kts 245°
2026-05-08 17:36 41.97271 -80.85074 33898 ft 386 kts 245°
2026-05-08 17:36 41.95863 -80.88138 34171 ft 384 kts 245°
2026-05-08 17:36 41.94464 -80.91186 34416 ft 383 kts 245°
2026-05-08 17:37 41.93065 -80.94231 34633 ft 383 kts 245°
2026-05-08 17:37 41.91664 -80.97277 34823 ft 383 kts 245°
2026-05-08 17:37 41.90267 -81.00316 35001 ft 383 kts 245°
2026-05-08 17:37 41.88866 -81.03362 35159 ft 384 kts 245°
2026-05-08 17:38 41.87459 -81.06409 35318 ft 384 kts 245°
2026-05-08 17:38 41.86067 -81.09417 35479 ft 384 kts 245°
2026-05-08 17:38 41.84656 -81.12462 35641 ft 385 kts 245°
2026-05-08 17:38 41.83246 -81.15505 35790 ft 385 kts 244°
2026-05-08 17:39 41.81834 -81.18548 35935 ft 385 kts 244°
2026-05-08 17:39 41.80414 -81.21604 35971 ft 387 kts 244°
2026-05-08 17:39 41.77561 -81.27738 35971 ft 388 kts 244°
2026-05-08 17:40 41.74707 -81.33868 35971 ft 388 kts 244°
2026-05-08 17:40 41.71853 -81.39991 35971 ft 388 kts 244°
2026-05-08 17:41 41.68989 -81.46111 35971 ft 388 kts 244°
2026-05-08 17:41 41.66123 -81.52223 35972 ft 388 kts 244°
2026-05-08 17:42 41.63254 -81.58332 35970 ft 388 kts 244°
2026-05-08 17:42 41.60401 -81.64402 35969 ft 388 kts 244°
2026-05-08 17:43 41.57524 -81.70506 35969 ft 388 kts 244°
2026-05-08 17:43 41.54636 -81.76606 35968 ft 388 kts 244°
2026-05-08 17:44 41.51752 -81.82703 35969 ft 388 kts 244°
2026-05-08 17:44 41.48869 -81.88794 35966 ft 389 kts 244°
2026-05-08 17:45 41.45980 -81.94883 35967 ft 388 kts 244°
2026-05-08 17:45 41.43105 -82.00915 35968 ft 388 kts 244°
2026-05-08 17:46 41.40205 -82.06983 35970 ft 388 kts 244°
2026-05-08 17:46 41.37303 -82.13042 35973 ft 387 kts 244°
2026-05-08 17:47 41.34495 -82.19144 35976 ft 385 kts 247°
2026-05-08 17:47 41.32437 -82.24372 35979 ft 383 kts 249°
2026-05-08 17:48 41.29651 -82.31769 35982 ft 383 kts 249°
2026-05-08 17:48 41.27207 -82.38052 35983 ft 383 kts 248°
2026-05-08 17:49 41.24726 -82.44301 35990 ft 382 kts 248°
2026-05-08 17:49 41.22256 -82.50494 35989 ft 381 kts 248°
2026-05-08 17:50 41.19778 -82.56711 35987 ft 381 kts 248°
2026-05-08 17:50 41.17305 -82.62924 35984 ft 380 kts 248°
2026-05-08 17:51 41.14828 -82.69126 35984 ft 380 kts 248°
2026-05-08 17:51 41.12348 -82.75314 35983 ft 380 kts 248°
2026-05-08 17:52 41.09866 -82.81501 35983 ft 380 kts 248°
2026-05-08 17:53 41.06144 -82.90763 35984 ft 379 kts 248°
2026-05-08 17:53 41.03669 -82.96875 35985 ft 379 kts 248°
2026-05-08 17:54 41.01188 -83.03032 35984 ft 379 kts 248°
2026-05-08 17:54 40.98704 -83.09184 35988 ft 379 kts 248°
2026-05-08 17:55 40.96216 -83.15324 35983 ft 378 kts 248°
2026-05-08 17:55 40.93720 -83.21452 35982 ft 379 kts 248°
2026-05-08 17:56 40.91220 -83.27581 35983 ft 378 kts 248°
2026-05-08 17:56 40.88728 -83.33705 35990 ft 378 kts 248°
2026-05-08 17:57 40.86236 -83.39778 35984 ft 378 kts 248°
2026-05-08 17:57 40.83718 -83.45915 35990 ft 377 kts 248°
2026-05-08 17:58 40.81230 -83.51965 35985 ft 377 kts 248°
2026-05-08 17:58 40.78732 -83.58044 35988 ft 377 kts 248°
2026-05-08 17:59 40.76237 -83.64109 35982 ft 376 kts 248°
2026-05-08 17:59 40.73739 -83.70156 35980 ft 375 kts 248°
2026-05-08 18:00 40.71238 -83.76189 35983 ft 375 kts 248°
2026-05-08 18:00 40.67487 -83.85213 35980 ft 374 kts 248°
2026-05-08 18:01 40.64990 -83.91207 35988 ft 373 kts 248°
2026-05-08 18:01 40.62493 -83.97198 35989 ft 373 kts 248°
2026-05-08 18:02 40.60415 -84.02166 35987 ft 373 kts 248°
2026-05-08 18:02 40.57497 -84.09138 35993 ft 372 kts 248°
2026-05-08 18:03 40.55005 -84.15081 35986 ft 371 kts 248°
2026-05-08 18:03 40.52512 -84.21004 35982 ft 370 kts 248°
2026-05-08 18:04 40.50036 -84.26878 35976 ft 370 kts 248°
2026-05-08 18:04 40.47540 -84.32784 35973 ft 369 kts 248°
2026-05-08 18:05 40.45027 -84.38668 35967 ft 372 kts 245°
2026-05-08 18:05 40.42123 -84.44322 35962 ft 374 kts 244°
2026-05-08 18:06 40.39697 -84.49009 35961 ft 374 kts 244°
2026-05-08 18:06 40.36774 -84.54648 35960 ft 374 kts 244°
2026-05-08 18:07 40.33849 -84.60280 35959 ft 374 kts 244°
2026-05-08 18:07 40.30918 -84.65907 35957 ft 373 kts 244°
2026-05-08 18:08 40.27988 -84.71518 35955 ft 373 kts 244°
2026-05-08 18:08 40.25065 -84.77117 35969 ft 371 kts 243°
2026-05-08 18:09 40.22159 -84.82669 35976 ft 368 kts 243°
2026-05-08 18:09 40.19271 -84.88172 35973 ft 365 kts 243°
2026-05-08 18:10 40.16401 -84.93635 35974 ft 364 kts 243°
2026-05-08 18:10 40.13543 -84.99064 35972 ft 361 kts 243°
2026-05-08 18:11 40.10717 -85.04437 35967 ft 361 kts 243°
2026-05-08 18:11 40.07872 -85.09837 35962 ft 361 kts 243°
2026-05-08 18:12 40.05021 -85.15222 35959 ft 360 kts 243°
2026-05-08 18:12 40.02166 -85.20606 35959 ft 360 kts 243°
2026-05-08 18:13 39.99324 -85.25974 35960 ft 359 kts 243°
2026-05-08 18:13 39.96476 -85.31319 35966 ft 358 kts 243°
2026-05-08 18:14 39.93638 -85.36644 35968 ft 357 kts 243°
2026-05-08 18:14 39.90808 -85.41958 35967 ft 357 kts 243°
2026-05-08 18:15 39.87981 -85.47256 35965 ft 356 kts 242°
2026-05-08 18:15 39.85170 -85.52505 35963 ft 355 kts 243°
2026-05-08 18:16 39.82340 -85.57783 35961 ft 356 kts 243°
2026-05-08 18:16 39.79517 -85.63056 35957 ft 355 kts 242°
2026-05-08 18:17 39.76685 -85.68318 35959 ft 355 kts 242°
2026-05-08 18:17 39.73850 -85.73578 35962 ft 355 kts 242°
2026-05-08 18:18 39.71008 -85.78846 35963 ft 356 kts 242°
2026-05-08 18:18 39.68179 -85.84080 35968 ft 356 kts 242°
2026-05-08 18:19 39.65332 -85.89345 35968 ft 356 kts 242°
2026-05-08 18:19 39.62480 -85.94593 35968 ft 356 kts 242°
2026-05-08 18:20 39.59625 -85.99838 35967 ft 356 kts 242°
2026-05-08 18:20 39.56770 -86.05083 35966 ft 356 kts 242°
2026-05-08 18:21 39.53917 -86.10326 35969 ft 356 kts 242°
2026-05-08 18:21 39.51081 -86.15531 35972 ft 356 kts 242°
2026-05-08 18:22 39.48217 -86.20768 35975 ft 357 kts 242°
2026-05-08 18:22 39.45354 -86.26006 35973 ft 357 kts 242°
2026-05-08 18:23 39.42485 -86.31238 35969 ft 357 kts 242°
2026-05-08 18:23 39.39608 -86.36471 35968 ft 357 kts 242°
2026-05-08 18:24 39.36723 -86.41691 35967 ft 357 kts 242°
2026-05-08 18:24 39.33861 -86.46876 35969 ft 357 kts 242°
2026-05-08 18:25 39.30980 -86.52099 35972 ft 357 kts 242°
2026-05-08 18:25 39.28096 -86.57324 35974 ft 357 kts 241°
2026-05-08 18:26 39.25200 -86.62543 35975 ft 358 kts 241°
2026-05-08 18:26 39.22305 -86.67765 35977 ft 358 kts 241°
2026-05-08 18:27 39.19898 -86.72103 35978 ft 358 kts 241°
2026-05-08 18:27 39.16532 -86.78154 35981 ft 357 kts 241°
2026-05-08 18:28 39.13639 -86.83354 35986 ft 357 kts 241°
2026-05-08 18:28 39.10734 -86.88559 35990 ft 358 kts 241°
2026-05-08 18:29 39.07820 -86.93754 35985 ft 358 kts 241°
2026-05-08 18:29 39.04905 -86.98948 35985 ft 358 kts 241°
2026-05-08 18:30 39.02014 -87.04110 35981 ft 358 kts 240°
2026-05-08 18:30 38.99100 -87.09294 35981 ft 357 kts 240°
2026-05-08 18:31 38.96179 -87.14469 35987 ft 358 kts 240°
2026-05-08 18:31 38.93258 -87.19642 35979 ft 358 kts 240°
2026-05-08 18:32 38.90343 -87.24814 35977 ft 358 kts 240°
2026-05-08 18:32 38.87422 -87.29990 35975 ft 358 kts 240°
2026-05-08 18:33 38.84510 -87.35134 35981 ft 359 kts 240°
2026-05-08 18:33 38.81569 -87.40305 35983 ft 359 kts 240°
2026-05-08 18:34 38.78625 -87.45465 35987 ft 358 kts 240°
2026-05-08 18:34 38.75693 -87.50626 35979 ft 358 kts 240°
2026-05-08 18:35 38.72754 -87.55793 35981 ft 359 kts 240°
2026-05-08 18:35 38.69814 -87.60955 35980 ft 359 kts 240°
2026-05-08 18:36 38.66886 -87.66075 35981 ft 359 kts 240°
2026-05-08 18:36 38.63932 -87.71227 35976 ft 359 kts 240°
2026-05-08 18:37 38.60973 -87.76379 35976 ft 359 kts 240°
2026-05-08 18:37 38.58009 -87.81529 35979 ft 360 kts 240°
2026-05-08 18:38 38.55047 -87.86681 35974 ft 360 kts 240°
2026-05-08 18:38 38.52074 -87.91831 35977 ft 360 kts 239°
2026-05-08 18:39 38.49232 -87.97019 35979 ft 356 kts 245°
2026-05-08 18:39 38.46760 -88.02507 35980 ft 357 kts 245°
2026-05-08 18:40 38.44288 -88.08001 35980 ft 357 kts 245°
2026-05-08 18:40 38.41804 -88.13490 35981 ft 357 kts 245°
2026-05-08 18:41 38.39310 -88.18974 35987 ft 357 kts 244°
2026-05-08 18:41 38.36816 -88.24448 35983 ft 357 kts 244°
2026-05-08 18:42 38.34339 -88.29891 35982 ft 357 kts 245°
2026-05-08 18:42 38.31849 -88.35361 35987 ft 357 kts 244°
2026-05-08 18:43 38.29358 -88.40827 35979 ft 357 kts 245°
2026-05-08 18:43 38.26865 -88.46281 35980 ft 356 kts 244°
2026-05-08 18:44 38.24366 -88.51731 35977 ft 356 kts 244°
2026-05-08 18:44 38.21861 -88.57177 35976 ft 356 kts 244°
2026-05-08 18:45 38.19361 -88.62621 35975 ft 357 kts 244°
2026-05-08 18:45 38.16855 -88.68061 35975 ft 357 kts 244°
2026-05-08 18:46 38.14367 -88.73465 35972 ft 357 kts 244°
2026-05-08 18:46 38.11854 -88.78906 35973 ft 357 kts 244°
2026-05-08 18:47 38.09331 -88.84340 35973 ft 357 kts 244°
2026-05-08 18:47 38.06808 -88.89781 35972 ft 358 kts 244°
2026-05-08 18:48 38.04285 -88.95226 35974 ft 358 kts 244°
2026-05-08 18:48 38.01751 -89.00670 35977 ft 358 kts 244°
2026-05-08 18:49 37.99212 -89.06108 35984 ft 358 kts 244°
2026-05-08 18:49 37.96692 -89.11503 35993 ft 358 kts 243°
2026-05-08 18:50 37.94154 -89.16924 35997 ft 357 kts 243°
2026-05-08 18:50 37.91621 -89.22330 35994 ft 357 kts 243°
2026-05-08 18:51 37.89093 -89.27731 35990 ft 356 kts 243°
2026-05-08 18:51 37.86554 -89.33121 35992 ft 357 kts 243°
2026-05-08 18:52 37.84058 -89.38544 35988 ft 356 kts 245°
2026-05-08 18:52 37.81745 -89.44070 35987 ft 356 kts 246°
2026-05-08 18:53 37.79458 -89.49620 35980 ft 356 kts 246°
2026-05-08 18:53 37.77138 -89.55161 35974 ft 357 kts 245°
2026-05-08 18:54 37.74796 -89.60693 35972 ft 357 kts 245°
2026-05-08 18:54 37.72462 -89.66189 35971 ft 358 kts 245°
2026-05-08 18:55 37.68925 -89.74503 35969 ft 358 kts 245°
2026-05-08 18:56 37.66570 -89.80046 35969 ft 359 kts 245°
2026-05-08 18:56 37.64203 -89.85584 35969 ft 358 kts 245°
2026-05-08 18:57 37.61835 -89.91121 35969 ft 359 kts 245°
2026-05-08 18:57 37.59486 -89.96619 35970 ft 359 kts 245°
2026-05-08 18:58 37.57109 -90.02147 35971 ft 359 kts 245°
2026-05-08 18:58 37.54731 -90.07680 35971 ft 359 kts 245°
2026-05-08 18:59 37.52346 -90.13209 35973 ft 359 kts 245°
2026-05-08 18:59 37.49963 -90.18738 35978 ft 359 kts 245°
2026-05-08 19:00 37.47985 -90.23327 35980 ft 359 kts 245°
2026-05-08 19:00 37.45209 -90.29733 35986 ft 359 kts 245°
2026-05-08 19:01 37.42816 -90.35238 35982 ft 358 kts 245°
2026-05-08 19:01 37.40429 -90.40741 35987 ft 358 kts 245°
2026-05-08 19:02 37.38038 -90.46242 35984 ft 359 kts 244°
2026-05-08 19:02 37.35642 -90.51734 35992 ft 358 kts 244°
2026-05-08 19:03 37.33251 -90.57217 35991 ft 358 kts 244°
2026-05-08 19:03 37.30854 -90.62691 35995 ft 357 kts 244°
2026-05-08 19:04 37.28475 -90.68130 35994 ft 357 kts 244°
2026-05-08 19:04 37.26077 -90.73591 35998 ft 357 kts 244°
2026-05-08 19:05 37.23678 -90.79054 35994 ft 357 kts 244°
2026-05-08 19:05 37.21283 -90.84502 35997 ft 357 kts 244°
2026-05-08 19:06 37.18881 -90.89943 35997 ft 356 kts 244°
2026-05-08 19:06 37.16479 -90.95377 35998 ft 356 kts 244°
2026-05-08 19:07 37.14093 -91.00772 35996 ft 356 kts 244°
2026-05-08 19:07 37.11689 -91.06209 35993 ft 357 kts 244°
2026-05-08 19:08 37.09275 -91.11639 35985 ft 357 kts 244°
2026-05-08 19:08 37.06861 -91.17068 35986 ft 357 kts 244°
2026-05-08 19:09 37.04448 -91.22487 35984 ft 356 kts 244°
2026-05-08 19:09 37.01725 -91.27694 35980 ft 360 kts 238°
2026-05-08 19:10 36.98749 -91.32672 35974 ft 360 kts 238°
2026-05-08 19:10 36.95753 -91.37672 35973 ft 359 kts 238°
2026-05-08 19:11 36.92759 -91.42669 35973 ft 359 kts 238°
2026-05-08 19:11 36.89763 -91.47662 35971 ft 359 kts 238°
2026-05-08 19:12 36.86766 -91.52650 35969 ft 359 kts 238°
2026-05-08 19:12 36.83770 -91.57631 35973 ft 359 kts 238°
2026-05-08 19:13 36.80789 -91.62577 35980 ft 359 kts 238°
2026-05-08 19:13 36.77790 -91.67548 35976 ft 358 kts 238°
2026-05-08 19:14 36.74793 -91.72515 35977 ft 358 kts 238°
2026-05-08 19:14 36.71794 -91.77477 35983 ft 358 kts 238°
2026-05-08 19:15 36.68791 -91.82429 35982 ft 358 kts 238°
2026-05-08 19:15 36.65790 -91.87372 35980 ft 357 kts 238°
2026-05-08 19:16 36.62813 -91.92275 35977 ft 357 kts 238°
2026-05-08 19:16 36.59807 -91.97204 35976 ft 357 kts 237°
2026-05-08 19:17 36.56811 -92.02120 35974 ft 356 kts 237°
2026-05-08 19:17 36.53811 -92.07029 35970 ft 356 kts 237°
2026-05-08 19:18 36.50810 -92.11934 35969 ft 356 kts 237°
2026-05-08 19:18 36.47812 -92.16842 35968 ft 356 kts 237°
2026-05-08 19:19 36.44835 -92.21708 35965 ft 356 kts 237°
2026-05-08 19:19 36.41831 -92.26600 35961 ft 356 kts 237°
2026-05-08 19:20 36.38816 -92.31488 35961 ft 356 kts 237°
2026-05-08 19:20 36.35808 -92.36375 35960 ft 356 kts 237°
2026-05-08 19:21 36.32798 -92.41263 35958 ft 356 kts 237°
2026-05-08 19:21 36.30293 -92.45324 35959 ft 357 kts 238°
2026-05-08 19:22 36.27685 -92.50509 35960 ft 354 kts 242°
2026-05-08 19:22 36.25122 -92.55727 35960 ft 354 kts 242°
2026-05-08 19:23 36.22558 -92.60934 35957 ft 354 kts 242°
2026-05-08 19:23 36.19993 -92.66138 35952 ft 354 kts 242°
2026-05-08 19:24 36.17451 -92.71311 35952 ft 354 kts 242°
2026-05-08 19:24 36.14884 -92.76520 35950 ft 355 kts 242°
2026-05-08 19:25 36.12310 -92.81722 35949 ft 355 kts 242°
2026-05-08 19:25 36.09729 -92.86930 35948 ft 355 kts 242°
2026-05-08 19:26 36.07148 -92.92132 35946 ft 355 kts 242°
2026-05-08 19:26 36.04568 -92.97336 35945 ft 355 kts 242°
2026-05-08 19:27 36.02003 -93.02501 35944 ft 355 kts 242°
2026-05-08 19:27 35.99412 -93.07697 35944 ft 355 kts 241°
2026-05-08 19:28 35.96824 -93.12886 35953 ft 354 kts 241°
2026-05-08 19:28 35.94239 -93.18058 35960 ft 354 kts 241°
2026-05-08 19:29 35.91661 -93.23216 35963 ft 353 kts 241°
2026-05-08 19:29 35.89085 -93.28354 35960 ft 352 kts 241°
2026-05-08 19:30 35.86506 -93.33493 35952 ft 353 kts 241°
2026-05-08 19:30 35.83937 -93.38603 35953 ft 353 kts 241°
2026-05-08 19:31 35.81354 -93.43748 35955 ft 353 kts 241°
2026-05-08 19:31 35.78770 -93.48893 35955 ft 353 kts 241°
2026-05-08 19:32 35.76177 -93.54030 35958 ft 354 kts 240°
2026-05-08 19:32 35.73573 -93.59171 35962 ft 354 kts 240°
2026-05-08 19:33 35.70964 -93.64319 35957 ft 354 kts 240°
2026-05-08 19:33 35.68360 -93.69461 35953 ft 354 kts 240°
2026-05-08 19:34 35.65768 -93.74563 35952 ft 354 kts 240°
2026-05-08 19:34 35.63155 -93.79693 35952 ft 354 kts 240°
2026-05-08 19:35 35.60542 -93.84823 35951 ft 354 kts 240°
2026-05-08 19:35 35.57928 -93.89948 35949 ft 354 kts 240°
2026-05-08 19:36 35.55313 -93.95071 35949 ft 354 kts 240°
2026-05-08 19:36 35.52693 -94.00187 35946 ft 354 kts 240°
2026-05-08 19:37 35.50073 -94.05302 35942 ft 354 kts 240°
2026-05-08 19:37 35.47466 -94.10384 35941 ft 354 kts 240°
2026-05-08 19:38 35.44840 -94.15501 35941 ft 354 kts 240°
2026-05-08 19:38 35.42210 -94.20615 35935 ft 355 kts 240°
2026-05-08 19:39 35.39565 -94.25724 35938 ft 355 kts 238°
2026-05-08 19:39 35.36109 -94.30128 35936 ft 362 kts 227°
2026-05-08 19:40 35.32342 -94.34225 35936 ft 362 kts 227°
2026-05-08 19:40 35.28611 -94.38303 35934 ft 362 kts 228°
2026-05-08 19:41 35.24851 -94.42409 35936 ft 363 kts 227°
2026-05-08 19:41 35.21083 -94.46511 35937 ft 363 kts 227°
2026-05-08 19:42 35.17312 -94.50605 35939 ft 363 kts 227°
2026-05-08 19:42 35.13538 -94.54694 35939 ft 362 kts 227°
2026-05-08 19:43 35.09763 -94.58778 35943 ft 362 kts 227°
2026-05-08 19:43 35.06014 -94.62829 35943 ft 362 kts 227°
2026-05-08 19:44 35.02238 -94.66905 35945 ft 363 kts 227°
2026-05-08 19:44 34.98451 -94.70979 35948 ft 363 kts 227°
2026-05-08 19:45 34.94646 -94.75025 35949 ft 363 kts 227°
2026-05-08 19:45 34.90834 -94.79064 35950 ft 363 kts 227°
2026-05-08 19:46 34.87022 -94.83105 35951 ft 363 kts 227°
2026-05-08 19:46 34.81324 -94.89133 35952 ft 363 kts 226°
2026-05-08 19:47 34.77462 -94.93108 35950 ft 364 kts 226°
2026-05-08 19:47 34.73571 -94.97054 35946 ft 364 kts 226°
2026-05-08 19:48 34.69688 -95.01001 35942 ft 363 kts 226°
2026-05-08 19:48 34.65818 -95.04944 35941 ft 363 kts 226°
2026-05-08 19:49 34.61948 -95.08881 35938 ft 363 kts 226°
2026-05-08 19:49 34.58081 -95.12821 35938 ft 363 kts 226°
2026-05-08 19:50 34.54225 -95.16733 35940 ft 364 kts 225°
2026-05-08 19:50 34.50337 -95.20668 35944 ft 364 kts 226°
2026-05-08 19:51 34.46451 -95.24603 35946 ft 364 kts 226°
2026-05-08 19:51 34.42559 -95.28528 35948 ft 364 kts 225°
2026-05-08 19:52 34.38661 -95.32459 35946 ft 365 kts 226°
2026-05-08 19:52 34.34764 -95.36394 35948 ft 365 kts 225°
2026-05-08 19:53 34.30852 -95.40324 35947 ft 366 kts 225°
2026-05-08 19:53 34.26938 -95.44250 35947 ft 366 kts 225°
2026-05-08 19:54 34.23023 -95.48174 35946 ft 366 kts 225°
2026-05-08 19:54 34.19135 -95.52072 35941 ft 366 kts 225°
2026-05-08 19:55 34.15214 -95.55988 35938 ft 366 kts 225°
2026-05-08 19:55 34.11293 -95.59898 35938 ft 366 kts 225°
2026-05-08 19:56 34.07367 -95.63803 35934 ft 366 kts 225°
2026-05-08 19:56 34.03436 -95.67708 35934 ft 366 kts 225°
2026-05-08 19:57 33.99500 -95.71609 35933 ft 366 kts 225°
2026-05-08 19:57 33.95567 -95.75513 35553 ft 368 kts 225°
2026-05-08 19:58 33.93616 -95.77463 34636 ft 371 kts 225°
2026-05-08 19:58 33.91622 -95.79466 33699 ft 375 kts 225°
2026-05-08 19:58 33.89611 -95.81488 32746 ft 379 kts 225°
2026-05-08 19:58 33.87581 -95.83519 31909 ft 380 kts 225°
2026-05-08 19:59 33.85552 -95.85541 31180 ft 378 kts 225°
2026-05-08 19:59 33.83537 -95.87551 30481 ft 376 kts 225°
2026-05-08 19:59 33.81529 -95.89552 29797 ft 374 kts 225°
2026-05-08 19:59 33.79531 -95.91529 29130 ft 371 kts 225°
2026-05-08 20:00 33.77537 -95.93493 28478 ft 369 kts 225°
2026-05-08 20:00 33.75558 -95.95438 27827 ft 367 kts 225°
2026-05-08 20:00 33.73619 -95.97344 27038 ft 361 kts 225°
2026-05-08 20:00 33.71686 -95.99242 25961 ft 357 kts 225°
2026-05-08 20:01 33.69771 -96.01122 24903 ft 354 kts 225°
2026-05-08 20:01 33.67874 -96.02991 23847 ft 351 kts 225°
2026-05-08 20:01 33.65995 -96.04844 22817 ft 349 kts 225°
2026-05-08 20:01 33.64131 -96.06680 21825 ft 346 kts 225°
2026-05-08 20:02 33.62277 -96.08506 20862 ft 343 kts 225°
2026-05-08 20:02 33.60440 -96.10307 19890 ft 340 kts 225°
2026-05-08 20:02 33.58613 -96.12092 19255 ft 340 kts 224°
2026-05-08 20:02 33.56790 -96.13882 18742 ft 337 kts 225°
2026-05-08 20:03 33.54975 -96.15663 18231 ft 336 kts 225°
2026-05-08 20:03 33.53158 -96.17441 17716 ft 338 kts 224°
2026-05-08 20:03 33.51344 -96.19214 17251 ft 334 kts 224°
2026-05-08 20:03 33.49550 -96.20968 16759 ft 333 kts 224°
2026-05-08 20:04 33.47781 -96.22701 16261 ft 333 kts 224°
2026-05-08 20:04 33.45992 -96.24453 15863 ft 328 kts 224°
2026-05-08 20:04 33.44314 -96.26229 15646 ft 317 kts 231°
2026-05-08 20:04 33.42875 -96.28207 15146 ft 316 kts 232°
2026-05-08 20:05 33.41451 -96.30183 14807 ft 312 kts 232°
2026-05-08 20:05 33.40035 -96.32143 14363 ft 310 kts 232°
2026-05-08 20:05 33.38623 -96.34090 13919 ft 309 kts 232°
2026-05-08 20:05 33.37214 -96.36025 13469 ft 308 kts 232°
2026-05-08 20:06 33.35806 -96.37954 13040 ft 306 kts 231°
2026-05-08 20:06 33.34433 -96.39833 12910 ft 295 kts 231°
2026-05-08 20:06 33.33153 -96.41685 12730 ft 285 kts 238°
2026-05-08 20:06 33.32239 -96.43753 12405 ft 280 kts 250°
2026-05-08 20:07 33.31626 -96.45952 12022 ft 279 kts 252°
2026-05-08 20:07 33.31018 -96.48148 11634 ft 278 kts 252°
2026-05-08 20:07 33.30412 -96.50321 11405 ft 272 kts 252°
2026-05-08 20:07 33.29824 -96.52418 11115 ft 269 kts 251°
2026-05-08 20:08 33.29229 -96.54527 10748 ft 267 kts 251°
2026-05-08 20:08 33.28735 -96.56667 10377 ft 267 kts 261°
2026-05-08 20:08 33.28603 -96.58883 10003 ft 267 kts 266°
2026-05-08 20:08 33.28505 -96.61100 9608 ft 267 kts 266°
2026-05-08 20:09 33.28407 -96.63317 9216 ft 267 kts 266°
2026-05-08 20:09 33.28306 -96.65535 8804 ft 267 kts 266°
2026-05-08 20:09 33.28213 -96.67767 8309 ft 270 kts 266°
2026-05-08 20:09 33.28118 -96.69961 8158 ft 259 kts 265°
2026-05-08 20:10 33.28020 -96.72072 8011 ft 251 kts 265°
2026-05-08 20:10 33.27919 -96.74154 7832 ft 251 kts 265°
2026-05-08 20:10 33.27816 -96.76234 7486 ft 250 kts 265°
2026-05-08 20:10 33.27715 -96.78304 7109 ft 249 kts 265°
2026-05-08 20:11 33.27614 -96.80367 6713 ft 249 kts 265°
2026-05-08 20:11 33.27515 -96.82399 6317 ft 248 kts 265°
2026-05-08 20:11 33.27415 -96.84448 6020 ft 244 kts 265°
2026-05-08 20:11 33.27266 -96.86462 5996 ft 245 kts 263°
2026-05-08 20:12 33.27088 -96.88488 6000 ft 246 kts 262°
2026-05-08 20:12 33.26906 -96.90520 5999 ft 246 kts 262°
2026-05-08 20:12 33.26725 -96.92549 6006 ft 246 kts 262°
2026-05-08 20:12 33.26543 -96.94581 6007 ft 246 kts 262°
2026-05-08 20:13 33.26361 -96.96615 6016 ft 246 kts 262°
2026-05-08 20:13 33.25887 -96.98548 6017 ft 243 kts 237°
2026-05-08 20:13 33.24700 -96.99971 6013 ft 244 kts 216°
2026-05-08 20:13 33.23199 -97.00924 6016 ft 245 kts 204°
2026-05-08 20:14 33.21615 -97.01691 6019 ft 246 kts 202°
2026-05-08 20:14 33.19993 -97.02351 5968 ft 248 kts 192°
2026-05-08 20:14 33.18279 -97.02497 5713 ft 247 kts 181°
2026-05-08 20:14 33.16560 -97.02478 5391 ft 246 kts 181°
2026-05-08 20:15 33.14842 -97.02472 5077 ft 246 kts 181°
2026-05-08 20:15 33.13157 -97.02480 4743 ft 246 kts 181°
2026-05-08 20:15 33.11472 -97.02489 4437 ft 240 kts 181°
2026-05-08 20:15 33.09807 -97.02499 4108 ft 240 kts 181°
2026-05-08 20:16 33.08149 -97.02507 3799 ft 234 kts 180°
2026-05-08 20:16 33.06560 -97.02511 3503 ft 224 kts 180°
2026-05-08 20:16 33.05016 -97.02521 3201 ft 217 kts 180°
2026-05-08 20:16 33.03562 -97.02532 2938 ft 201 kts 180°
2026-05-08 20:17 33.02215 -97.02539 2668 ft 187 kts 180°
2026-05-08 20:17 33.00967 -97.02544 2413 ft 172 kts 181°
2026-05-08 20:17 32.99811 -97.02553 2196 ft 159 kts 181°
2026-05-08 20:17 32.98752 -97.02560 2012 ft 146 kts 181°
2026-05-08 20:18 32.97752 -97.02565 1815 ft 142 kts 181°
2026-05-08 20:18 32.96775 -97.02570 1627 ft 140 kts 181°
2026-05-08 20:18 32.95807 -97.02575 1439 ft 139 kts 181°
2026-05-08 20:18 32.94856 -97.02580 1258 ft 138 kts 181°
2026-05-08 20:19 32.93895 -97.02585 1074 ft 138 kts 181°
2026-05-08 20:19 32.92933 -97.02588 893 ft 139 kts 181°
2026-05-08 20:19 32.91966 -97.02598 714 ft 139 kts 181°
2026-05-08 20:19 32.91004 -97.02602 570 ft 131 kts 180°
2026-05-08 20:20 32.90268 -97.02607 575 ft 81 kts 180°
2026-05-08 20:20 32.89846 -97.02608 568 ft 51 kts 181°
2026-05-08 20:20 32.89600 -97.02664 568 ft 29 kts 207°
2026-05-08 20:20 32.89460 -97.02758 569 ft 21 kts 210°
2026-05-08 20:21 32.89394 -97.02852 572 ft 14 kts 266°
2026-05-08 20:21 32.89394 -97.02961 576 ft 16 kts 270°
2026-05-08 20:21 32.89395 -97.03128 576 ft 20 kts 270°
2026-05-08 20:21 32.89396 -97.03264 582 ft 13 kts 270°
2026-05-08 20:22 32.89423 -97.03313 585 ft 7 kts 339°
2026-05-08 20:22 32.89520 -97.03317 586 ft 15 kts
2026-05-08 20:22 32.89607 -97.03316 586 ft 9 kts
2026-05-08 20:22 32.89640 -97.03327 586 ft 6 kts 327°
2026-05-08 20:23 32.89660 -97.03382 587 ft 6 kts 274°
2026-05-08 20:23 32.89661 -97.03415 587 ft 5 kts 272°
2026-05-08 20:23 32.89667 -97.03462 587 ft 3 kts 285°
2026-05-08 20:23 32.89670 -97.03475 587 ft 2 kts 287°
2026-05-08 20:24 32.89676 -97.03495 587 ft 1 kts 288°
2026-05-08 20:24 32.89679 -97.03506 587 ft 2 kts 288°
2026-05-08 20:24 32.89680 -97.03510 587 ft 0 kts 288°